Location: Stockholm
(59.3293°N, 18.0686°E)
Time: 20:22:58
(UTC+02:00)

N. Korean satellite - Visible Passes

Search period start: 17 October 2017 00:00
Search period end: 27 October 2017 00:00
Orbit: 459 x 517 km, 97.2° (Epoch: 16 October)

Date Brightness Start Highest point End Pass type
(mag) Time Alt. Az. Time Alt. Az. Time Alt. Az.
17 Oct 9.3 19:36:09 10° SW 19:38:54 21° W 19:41:40 10° NW visible
18 Oct 8.4 19:12:11 10° SSW 19:15:24 33° W 19:18:37 10° NNW visible
19 Oct 10.1 06:31:06 10° ENE 06:32:38 12° E 06:34:11 10° ESE visible
19 Oct 7.3 18:48:31 10° S 18:51:58 55° WSW 18:55:25 10° NNW visible
20 Oct 6.4 18:25:05 10° SSE 18:28:35 87° ENE 18:32:05 10° NNW visible
20 Oct 9.9 20:00:52 10° WSW 20:02:40 13° W 20:04:27 10° NW visible
21 Oct 6.6 18:01:52 10° SE 18:05:16 52° ENE 18:08:39 10° N visible
21 Oct 9.3 19:36:22 10° SW 19:39:05 21° W 19:41:47 10° NW visible
22 Oct 9.7 06:53:45 10° NE 06:56:23 20° E 06:59:01 10° SE visible
22 Oct 8.4 19:12:22 10° SSW 19:15:33 33° W 19:18:44 10° NNW visible
23 Oct 10.1 06:31:10 10° ENE 06:32:47 13° E 06:34:24 10° ESE visible
23 Oct 7.3 18:48:40 10° S 18:52:05 55° WSW 18:55:31 10° NNW visible
24 Oct 6.4 18:25:13 10° SSE 18:28:41 88° ENE 18:32:10 10° NNW visible
24 Oct 9.9 20:01:03 10° WSW 20:02:47 13° W 20:04:31 10° NW visible
25 Oct 6.6 18:01:58 10° SE 18:05:21 52° ENE 18:08:45 10° N visible
25 Oct 9.3 19:36:30 10° SW 19:39:10 21° W 19:41:51 10° NW visible
26 Oct 9.7 06:53:48 10° NE 06:56:28 20° E 06:59:09 10° SE visible
26 Oct 8.4 19:12:28 10° SSW 19:15:37 32° W 19:18:48 10° NNW visible
